timestamp,surface_pressure_avg,surface_temp_avg,battery_voltage,lat,long
2021-04-14 00:09:00+00:00,346.1847,1.8,13.13,47.84626,-54.09684
2021-04-14 00:19:01+00:00,352.6496,1.7,12.81,47.84626,-54.09684
2021-04-14 00:29:01+00:00,355.2613,1.76,12.81,47.84626,-54.09684
2021-04-14 00:39:01+00:00,350.6595,1.7,12.81,47.84626,-54.09684
2021-04-14 00:49:01+00:00,350.3479,1.83,12.81,47.84626,-54.09684
2021-04-14 00:59:01+00:00,352.8279,2.15,12.81,47.84626,-54.09684
2021-04-14 01:09:01+00:00,352.5096,2.0,12.81,47.84626,-54.09684
2021-04-14 01:19:00+00:00,349.228,2.0,12.65,47.84626,-54.09684
2021-04-14 01:29:00+00:00,348.543,2.0,12.65,47.84626,-54.09684
2021-04-14 01:39:00+00:00,350.2546,2.0,12.65,47.84626,-54.09684
2021-04-14 01:49:00+00:00,345.4463,2.08,12.65,47.84626,-54.09684
2021-04-14 01:59:00+00:00,338.668,2.1,12.65,47.84626,-54.09684
2021-04-14 02:09:00+00:00,338.673,2.0,12.65,47.84626,-54.09684
2021-04-14 02:19:00+00:00,335.3280000000001,2.06,12.65,47.84626,-54.09684
2021-04-14 02:29:00+00:00,328.0196,2.1,12.65,47.84626,-54.09684
2021-04-14 02:39:00+00:00,321.6163,2.17,12.65,47.84626,-54.09684
2021-04-14 02:49:00+00:00,320.698,2.2,12.65,47.84626,-54.09684
2021-04-14 02:59:00+00:00,315.6463,1.68,12.65,47.84626,-54.09684
2021-04-14 03:09:00+00:00,307.9547,1.66,12.65,47.84626,-54.09684
2021-04-14 03:19:00+00:00,301.4113,1.65,12.65,47.84626,-54.09684
2021-04-14 03:29:00+00:00,294.2247,2.03,12.65,47.84626,-54.09684
2021-04-14 03:39:00+00:00,286.7397,2.37,12.65,47.84626,-54.09684
2021-04-14 03:49:00+00:00,278.4631,2.39,12.65,47.84626,-54.09684
2021-04-14 03:59:00+00:00,272.4831,2.51,12.65,47.84626,-54.09684
2021-04-14 04:09:00+00:00,264.6614,2.6,12.65,47.84626,-54.09684
2021-04-14 04:19:01+00:00,255.2864,2.5,12.65,47.84626,-54.09684
2021-04-14 04:29:01+00:00,246.5098,2.4,12.65,47.84626,-54.09684
2021-04-14 04:39:01+00:00,240.0547,2.4,12.65,47.84626,-54.09684
2021-04-14 04:49:01+00:00,232.8581,1.93,12.65,47.84626,-54.09684
2021-04-14 04:59:01+00:00,222.6981,1.71,12.65,47.84626,-54.09684
2021-04-14 05:09:01+00:00,213.0231,1.8,12.65,47.84626,-54.09684
2021-04-14 05:19:01+00:00,205.8364,1.77,12.65,47.84626,-54.09684
2021-04-14 05:29:01+00:00,198.5548,1.71,12.65,47.84626,-54.09684
2021-04-14 05:39:01+00:00,192.5531,1.8,12.65,47.84626,-54.09684
2021-04-14 05:49:01+00:00,188.6115,1.7,12.65,47.84626,-54.09684
2021-04-14 05:59:01+00:00,183.3215,1.95,12.65,47.84626,-54.09684
2021-04-14 06:09:01+00:00,176.7398,1.96,12.65,47.84626,-54.09684
2021-04-14 06:19:00+00:00,173.5731,2.15,12.65,47.84626,-54.09684
2021-04-14 06:29:00+00:00,172.9932,2.3,12.65,47.84626,-54.09684
2021-04-14 06:39:00+00:00,170.5898,2.3,12.65,47.84626,-54.09684
2021-04-14 06:49:00+00:00,167.2465,2.5,12.65,47.84626,-54.09684
2021-04-14 06:59:00+00:00,168.4415,2.5,12.65,47.84626,-54.09684
2021-04-14 07:09:00+00:00,169.8115,2.17,12.65,47.84626,-54.09684
2021-04-14 07:19:00+00:00,167.4048,1.8,12.65,47.84626,-54.09684
2021-04-14 07:29:00+00:00,170.5331,1.8,12.65,47.84626,-54.09684
2021-04-14 07:39:00+00:00,176.3881,1.8,12.65,47.84626,-54.09684
2021-04-14 07:49:00+00:00,177.5881,1.8,12.65,47.84626,-54.09684
2021-04-14 07:59:00+00:00,181.0448,1.7,12.65,47.84626,-54.09684
2021-04-14 08:09:00+00:00,188.6614,1.8,12.65,47.84626,-54.09684
2021-04-14 08:19:00+00:00,192.9697,1.82,12.65,47.84626,-54.09684
2021-04-14 08:29:00+00:00,196.4414,1.8,12.65,47.84626,-54.09684
2021-04-14 08:39:00+00:00,204.3098,1.6,12.65,47.84626,-54.09684
2021-04-14 08:49:00+00:00,210.7598,1.3,12.65,47.84626,-54.09684
2021-04-14 08:59:00+00:00,211.7715,1.29,12.65,47.84626,-54.09684
2021-04-14 09:09:00+00:00,216.8981,1.25,12.65,47.84626,-54.09684
2021-04-14 09:19:00+00:00,226.1348,1.29,12.65,47.84626,-54.09684
2021-04-14 09:29:00+00:00,230.1014,1.29,12.65,47.84626,-54.09684
2021-04-14 09:39:00+00:00,232.9231,1.29,12.65,47.84626,-54.09684
2021-04-14 09:49:00+00:00,239.2798,1.29,12.65,47.84626,-54.09684
2021-04-14 09:59:00+00:00,247.0215,1.3,12.65,47.84626,-54.09684
2021-04-14 10:09:00+00:00,251.2414,1.28,12.65,47.84626,-54.09684
2021-04-14 10:19:00+00:00,256.2131,1.26,12.73,47.84626,-54.09684
2021-04-14 10:29:00+00:00,262.5664,1.28,12.73,47.84626,-54.09684
2021-04-14 10:39:00+00:00,267.5564,1.57,12.73,47.84626,-54.09684
2021-04-14 10:49:00+00:00,268.9847,1.89,12.73,47.84626,-54.09684
2021-04-14 10:59:00+00:00,273.798,1.97,12.73,47.84626,-54.09684
2021-04-14 11:09:00+00:00,280.9314,1.3,12.73,47.84626,-54.09684
2021-04-14 11:19:00+00:00,286.5647,1.35,12.89,47.84626,-54.09684
2021-04-14 11:29:00+00:00,290.1097,1.4,12.89,47.84626,-54.09684
2021-04-14 11:39:00+00:00,297.4547,1.5,12.89,47.84626,-54.09684
2021-04-14 11:49:00+00:00,305.8763,1.5,12.89,47.84626,-54.09684
2021-04-14 11:59:00+00:00,311.9396,1.5,12.89,47.84626,-54.09684
2021-04-14 12:09:00+00:00,317.6514,1.5,12.89,47.84626,-54.09684
2021-04-14 12:19:01+00:00,324.5546,1.49,13.37,47.84626,-54.09684
2021-04-14 12:29:01+00:00,330.8397,1.48,13.37,47.84626,-54.09684
2021-04-14 12:39:01+00:00,333.86300000000006,1.4,13.37,47.84626,-54.09684
2021-04-14 12:49:01+00:00,335.5946,1.4,13.37,47.84626,-54.09684
2021-04-14 12:59:01+00:00,340.9496,1.4,13.37,47.84626,-54.09684
2021-04-14 13:09:01+00:00,341.9946,1.4,13.37,47.84626,-54.09684
2021-04-14 13:19:00+00:00,340.0714,1.4,13.68,47.84626,-54.09684
2021-04-14 13:29:00+00:00,338.0780000000001,1.4,13.68,47.84626,-54.09684
2021-04-14 13:39:00+00:00,339.0363,1.4,13.68,47.84626,-54.09684
2021-04-14 13:49:00+00:00,336.8447,1.4,13.68,47.84626,-54.09684
2021-04-14 13:59:00+00:00,330.6713,1.4,13.68,47.84626,-54.09684
2021-04-14 14:09:00+00:00,327.8730000000001,1.4,13.68,47.84626,-54.09684
2021-04-14 14:19:01+00:00,326.4997,1.4,14.08,47.84626,-54.09684
2021-04-14 14:29:01+00:00,320.96299999999997,1.48,14.08,47.84626,-54.09684
2021-04-14 14:39:01+00:00,315.3563,1.5,14.08,47.84626,-54.09684
2021-04-14 14:49:01+00:00,312.5997,1.5,14.08,47.84626,-54.09684
2021-04-14 14:59:01+00:00,310.2897,1.5,14.08,47.84626,-54.09684
2021-04-14 15:09:01+00:00,305.448,1.5,14.08,47.84626,-54.09684
2021-04-14 15:19:00+00:00,299.8864,1.5,14.16,47.84626,-54.09684
2021-04-14 15:29:00+00:00,295.343,1.53,14.16,47.84626,-54.09684
2021-04-14 15:39:00+00:00,289.718,1.4,14.16,47.84626,-54.09684
2021-04-14 15:49:00+00:00,282.5447,1.6,14.16,47.84626,-54.09684
2021-04-14 15:59:00+00:00,274.0564,1.6,14.16,47.84626,-54.09684
2021-04-14 16:09:00+00:00,267.963,1.9,14.16,47.84626,-54.09684
2021-04-14 16:19:01+00:00,262.3015,1.7,14.24,47.84626,-54.09684
2021-04-14 16:29:01+00:00,257.3947,1.69,14.24,47.84626,-54.09684
2021-04-14 16:39:01+00:00,251.6848,1.73,14.24,47.84626,-54.09684
2021-04-14 16:49:01+00:00,242.7064,1.78,14.24,47.84626,-54.09684
2021-04-14 16:59:01+00:00,232.7414,1.7,14.24,47.84626,-54.09684
2021-04-14 17:09:01+00:00,225.4364,1.7,14.24,47.84626,-54.09684
2021-04-14 17:19:00+00:00,219.5698,1.7,14.24,47.84626,-54.09684
2021-04-14 17:29:00+00:00,212.1082,1.7,14.24,47.84626,-54.09684
2021-04-14 17:39:00+00:00,203.6881,1.7,14.24,47.84626,-54.09684
2021-04-14 17:49:00+00:00,196.9732,1.7,14.24,47.84626,-54.09684
2021-04-14 17:59:00+00:00,193.0815,1.71,14.24,47.84626,-54.09684
2021-04-14 18:09:00+00:00,190.7148,1.76,14.24,47.84626,-54.09684
2021-04-14 18:19:00+00:00,186.5015,1.77,14.16,47.84626,-54.09684
2021-04-14 18:29:00+00:00,181.7898,1.76,14.16,47.84626,-54.09684
2021-04-14 18:39:00+00:00,181.9648,1.8,14.16,47.84626,-54.09684
2021-04-14 18:49:00+00:00,181.0698,2.06,14.16,47.84626,-54.09684
2021-04-14 18:59:00+00:00,177.1098,2.29,14.16,47.84626,-54.09684
2021-04-14 19:09:00+00:00,178.0631,2.3,14.16,47.84626,-54.09684
2021-04-14 19:19:00+00:00,181.9781,1.91,14.24,47.84626,-54.09684
2021-04-14 19:29:00+00:00,183.4499,1.65,14.24,47.84626,-54.09684
2021-04-14 19:39:00+00:00,185.1181,1.43,14.24,47.84626,-54.09684
2021-04-14 19:49:00+00:00,189.4181,1.43,14.24,47.84626,-54.09684
2021-04-14 19:59:00+00:00,193.4081,1.83,14.24,47.84626,-54.09684
2021-04-14 20:09:00+00:00,198.8164,1.77,14.24,47.84626,-54.09684
2021-04-14 20:19:00+00:00,206.7065,1.35,14.16,47.84626,-54.09684
2021-04-14 20:29:00+00:00,209.9165,1.67,14.16,47.84626,-54.09684
2021-04-14 20:39:00+00:00,215.4148,1.8,14.16,47.84626,-54.09684
2021-04-14 20:49:00+00:00,225.4281,2.0,14.16,47.84626,-54.09684
2021-04-14 20:59:00+00:00,232.2481,2.0,14.16,47.84626,-54.09684
2021-04-14 21:09:00+00:00,234.0847,2.01,14.16,47.84626,-54.09684
2021-04-14 21:19:01+00:00,238.1231,2.09,13.84,47.84626,-54.09684
2021-04-14 21:29:01+00:00,246.8414,2.12,13.84,47.84626,-54.09684
2021-04-14 21:39:01+00:00,252.4732,1.96,13.84,47.84626,-54.09684
2021-04-14 21:49:01+00:00,254.2531,1.5,13.84,47.84626,-54.09684
2021-04-14 21:59:01+00:00,259.0231,1.3,13.84,47.84626,-54.09684
2021-04-14 22:09:01+00:00,267.9131,1.3,13.84,47.84626,-54.09684
2021-04-14 22:19:00+00:00,272.233,1.5,13.44,47.84626,-54.09684
2021-04-14 22:29:00+00:00,273.7731,1.34,13.44,47.84626,-54.09684
2021-04-14 22:39:00+00:00,279.4681,1.28,13.44,47.84626,-54.09684
2021-04-14 22:49:00+00:00,287.423,1.26,13.44,47.84626,-54.09684
2021-04-14 22:59:00+00:00,290.2981,1.26,13.44,47.84626,-54.09684
2021-04-14 23:09:00+00:00,293.1396,1.26,13.44,47.84626,-54.09684
2021-04-14 23:19:00+00:00,300.9631,1.27,13.05,47.84626,-54.09684
2021-04-14 23:29:00+00:00,309.5847,1.28,13.05,47.84626,-54.09684
2021-04-14 23:39:00+00:00,314.4696,1.27,13.05,47.84626,-54.09684
2021-04-14 23:49:00+00:00,320.308,1.27,13.05,47.84626,-54.09684
2021-04-14 23:59:00+00:00,326.9163,1.28,13.05,47.84626,-54.09684
